Location: *
(34.8620°S, 39.3380°E)
Time: 08:56:40
(UTC+00:00)

Cosmos 1603 - Pass Details

Date: 27 July 2021
Orbit: 831 x 860 km, 71.0° (Epoch: 22 September)

Event Time Altitude Azimuth Distance (km) Brightness Sun altitude
Rises 02:15:42 0° 346° (NNW) 3,403 6.8 -25.6°
Reaches altitude 10° 02:18:08 10° 348° (NNW) 2,479 6.1 -25.1°
Maximum altitude 02:23:49 73° 72° (ENE) 904 3.9 -24.0°
Drops below altitude 10° 02:29:36 10° 155° (SSE) 2,522 6.4 -22.8°
Sets 02:32:05 0° 156° (SSE) 3,466 7.1 -22.3°
